Wind_Speed
24 25 26 25 23 21 19 16 13 10 10 10 9 7 6 5 4 3 3 4 5 6 7 7 7 8 8 8 8 9 10 10 11 12 12 13 14 14 15 15 16 17 17 18
24 25 25 25 22 19 16 15 13 11 9 9 8 7 5 4 3 3 3 4 5 5 6 6 7 7 7 8 8 9 10 10 11 11 12 13 14 14 15 15 16 17 17 18
23 24 24 23 21 19 18 16 13 11 9 9 8 6 5 3 2 3 3 4 4 5 6 6 6 6 7 8 8 9 10 10 11 11 12 12 13 14 15 15 16 17 18 18
23 23 22 22 20 19 17 16 14 12 11 9 7 5 4 3 3 3 3 4 5 5 5 5 6 6 7 8 9 9 10 10 11 11 12 12 13 14 14 15 16 16 17 18
22 22 22 21 20 18 17 15 14 13 12 10 7 5 4 3 4 3 4 5 5 5 5 6 6 6 7 8 8 9 10 10 11 11 12 12 13 13 14 15 15 16 17 18
20 21 21 19 18 17 17 15 14 13 12 10 8 7 6 5 5 5 5 6 6 6 6 6 6 6 6 7 8 9 10 10 11 11 12 12 13 14 15 15 15 16 17 17
18 18 18 17 17 18 17 17 15 14 14 11 9 9 9 7 6 6 6 6 5 5 5 5 5 5 6 6 7 8 9 10 11 12 12 13 14 14 15 15 16 16 17 17
16 17 17 18 19 18 17 17 15 13 12 10 9 11 9 8 7 6 6 5 5 5 5 5 4 5 5 6 7 8 9 10 11 12 13 14 14 14 15 16 16 17 17 17
13 13 15 17 18 18 18 16 15 15 13 11 11 11 9 9 8 7 6 5 5 5 4 4 4 4 5 6 7 8 9 10 11 12 13 14 14 15 15 16 17 17 18 18
14 12 13 15 15 15 17 16 14 12 13 12 10 9 9 8 8 7 6 5 5 4 4 4 4 4 5 6 7 8 9 10 11 12 13 14 14 15 16 16 17 18 18 18
13 11 11 13 15 15 15 14 13 12 11 11 10 10 8 8 8 7 6 5 4 4 4 4 4 5 6 7 7 8 9 11 12 13 13 14 15 16 17 17 18 19 19 20
13 11 9 10 12 15 16 17 16 13 12 11 10 11 10 9 8 8 7 6 5 4 4 5 5 6 7 8 8 9 10 11 12 13 14 15 16 17 17 18 18 19 20 21
14 13 11 9 10 11 13 14 15 14 12 11 11 11 10 9 9 8 8 7 6 6 6 6 6 7 8 9 9 10 11 12 13 15 16 16 17 18 19 19 19 20 21 22
15 13 11 11 11 11 12 13 13 13 12 11 13 13 11 10 10 9 8 8 7 8 8 8 8 9 10 10 11 12 13 14 15 16 17 18 19 20 20 20 21 22 23 23
15 12 9 10 11 11 11 12 13 13 12 14 15 14 11 11 10 9 9 9 9 9 9 10 10 11 12 12 13 14 15 16 17 18 19 21 22 22 22 22 23 24 24 25
15 14 12 11 11 12 12 13 14 14 15 15 15 12 11 10 10 10 10 10 10 11 11 12 12 13 13 14 15 16 17 18 19 20 21 23 24 24 24 25 25 26 27 27
13 14 13 11 11 11 11 12 13 14 15 15 14 13 11 11 11 11 11 12 12 12 13 13 14 15 16 16 17 18 19 20 21 23 24 25 26 26 27 27 28 28 29 30
13 13 13 13 13 12 11 12 14 14 14 15 14 14 13 13 13 13 13 13 14 15 15 16 17 17 18 19 20 21 22 23 24 26 27 28 28 28 29 30 30 31 32 32
14 14 15 14 14 14 13 14 15 15 15 15 15 15 15 16 15 15 15 16 17 17 18 19 20 20 21 21 23 24 25 26 27 28 29 30 30 31 32 33 33 34 35 36
16 16 17 16 16 17 15 14 16 17 16 16 17 17 17 18 18 17 17 19 19 20 21 21 22 23 23 24 26 27 28 29 30 31 32 33 33 34 35 36 37 38 39 39
19 19 18 18 19 19 17 16 18 19 17 17 18 18 19 20 20 20 20 21 22 22 23 24 25 26 27 28 29 30 31 32 33 34 35 36 37 38 39 40 41 42 43 44
21 21 21 21 22 22 19 19 21 20 19 20 20 21 21 22 22 22 23 24 25 25 26 27 28 29 30 31 32 33 34 35 36 37 38 39 40 41 43 44 45 47 47 48
24 24 24 24 24 23 22 23 23 23 23 23 23 23 24 24 25 25 26 27 28 28 29 30 31 31 32 33 35 36 37 38 40 41 42 43 44 45 47 48 50 51 52 52
27 26 26 27 26 26 25 25 26 26 26 26 26 27 27 27 28 29 29 30 31 31 32 32 33 34 35 37 38 39 41 42 43 44 45 46 48 49 51 53 54 55 55 56
30 29 29 31 30 30 29 29 29 29 29 29 30 30 30 31 31 32 33 33 34 34 35 36 36 37 39 40 41 42 44 45 46 47 49 50 52 54 55 56 56 57 58 58
32 32 33 34 33 33 33 32 32 32 32 32 33 33 33 34 35 35 36 37 37 38 38 39 40 41 42 43 44 46 47 48 49 51 52 54 56 57 58 58 59 59 60 60
Wind_Direction
186 185 186 187 187 187 186 188 193 193 194 202 208 212 215 226 248 256 287 303 317 324 327 327 326 327 328 330 331 332 334 332 331 333 334 335 337 338 338 338 340 342 343 344
180 183 182 183 185 185 181 183 187 189 187 191 197 207 213 219 244 257 277 303 328 329 326 327 328 329 331 334 334 335 337 336 335 334 334 334 337 338 339 339 341 342 342 343
179 180 182 183 186 188 188 184 180 180 182 186 190 193 195 202 236 255 284 309 315 316 322 325 326 330 333 335 336 337 339 338 337 335 334 335 337 339 340 340 341 342 343 343
174 177 178 180 185 187 184 184 185 180 173 168 177 177 182 231 251 257 281 299 305 308 315 324 328 329 330 332 336 339 340 338 337 336 335 335 336 337 340 341 343 344 345 346
168 173 178 181 182 183 181 174 173 166 162 160 174 188 197 231 246 268 289 299 310 317 323 331 329 329 329 332 337 340 340 340 338 337 335 335 336 337 339 340 340 342 344 346
168 173 178 179 179 180 177 170 162 161 157 169 179 203 217 229 255 274 290 299 310 321 330 331 329 329 332 335 338 341 342 341 339 339 338 338 338 338 339 339 340 341 342 344
168 173 178 177 171 172 171 162 159 166 172 182 188 212 228 245 265 276 287 294 306 318 326 329 334 333 335 338 340 342 342 342 340 339 338 337 337 338 339 339 340 340 340 342
168 173 176 173 167 164 163 163 167 173 181 187 198 220 237 252 259 270 285 298 309 319 327 334 338 340 339 340 343 344 345 344 343 340 338 337 337 337 337 338 338 339 339 339
163 173 179 177 172 167 167 177 179 179 184 191 211 233 246 252 260 271 285 295 306 317 328 340 345 343 341 342 344 345 346 347 347 345 344 342 340 339 338 338 337 337 338 337
164 173 178 178 182 182 176 179 177 175 174 188 215 245 249 246 260 272 281 290 301 310 326 337 340 341 342 343 344 345 345 347 348 348 347 346 343 340 338 337 337 337 336 336
158 164 176 183 187 187 189 184 182 176 181 196 214 234 252 259 261 269 278 288 299 307 314 315 319 327 331 334 336 339 340 342 343 344 344 343 341 338 337 336 336 335 334 333
162 166 181 188 189 190 189 188 188 188 189 201 223 237 249 256 260 267 274 282 288 293 299 303 312 321 326 327 329 331 333 334 335 336 337 337 336 336 335 334 334 334 334 332
175 168 172 189 194 201 203 199 197 196 201 207 229 247 249 252 258 263 270 277 278 285 293 302 311 316 320 322 322 322 324 326 327 329 331 332 332 332 331 331 330 330 329 328
184 179 180 196 207 210 207 207 208 206 207 215 233 245 246 253 258 263 267 273 277 284 292 298 304 308 312 315 316 316 318 320 322 324 326 326 327 327 326 325 325 325 324 324
191 191 195 205 210 216 219 219 216 215 216 222 233 244 245 248 254 261 266 273 278 284 291 297 301 304 307 310 311 313 314 316 318 320 322 322 322 322 322 321 320 320 320 320
200 201 209 220 226 228 228 226 226 226 229 234 243 246 251 250 256 264 269 274 279 286 291 294 298 302 304 306 308 310 312 314 315 317 319 320 320 320 320 319 318 317 317 317
208 210 215 224 233 234 234 232 231 232 236 241 247 250 255 260 261 266 272 278 282 286 290 293 297 300 302 304 306 308 310 311 312 314 316 316 317 317 317 316 315 315 314 314
215 216 222 225 232 238 234 236 240 241 243 246 250 255 261 265 266 270 275 279 282 285 288 291 295 298 300 301 303 304 307 308 310 311 312 313 313 313 313 313 313 312 312 312
228 227 229 231 235 242 241 242 246 248 249 251 255 259 263 266 269 273 277 279 282 286 289 292 294 296 297 299 301 303 305 306 307 308 309 309 309 310 310 310 310 310 309 309
236 237 238 240 242 246 247 247 251 253 253 254 257 261 265 269 272 275 276 279 283 286 289 291 293 294 295 297 299 300 303 304 305 307 307 307 307 307 308 308 308 308 307 307
241 243 245 247 250 252 252 251 254 256 257 257 260 263 267 270 274 277 278 280 283 286 288 290 291 293 294 296 298 300 301 303 304 305 305 305 305 306 307 307 307 307 306 305
245 247 248 251 254 256 258 257 258 260 262 262 264 266 269 272 276 278 279 281 283 286 288 290 291 292 294 296 297 299 300 301 302 303 304 304 305 305 306 306 306 306 305 304
246 249 251 254 257 260 260 260 262 263 264 265 267 268 271 273 275 277 279 281 284 286 288 290 291 292 294 295 297 298 299 300 301 302 303 304 304 305 306 306 306 305 304 303
247 249 254 256 258 259 260 262 263 265 266 267 268 270 272 274 276 278 280 281 283 286 287 289 290 292 293 294 296 297 299 300 301 302 303 304 305 305 306 306 306 305 304 303
251 251 253 256 257 259 260 262 264 265 267 268 270 271 273 274 276 277 279 281 283 285 286 288 290 292 293 294 296 297 299 300 301 302 304 305 305 306 306 306 306 306 305 304
252 253 253 255 256 259 262 263 264 266 267 269 270 272 274 275 276 278 281 282 284 285 287 289 291 292 293 294 296 298 299 300 302 303 304 305 306 306 306 306 305 306 306 305
Height
5815 5822 5826 5832 5836 5840 5844 5849 5853 5856 5859 5861 5863 5865 5867 5868 5869 5870 5870 5870 5870 5870 5870 5870 5869 5869 5868 5868 5867 5866 5866 5865 5864 5863 5862 5861 5860 5859 5857 5855 5853 5851 5849 5846
5816 5821 5826 5831 5835 5839 5843 5848 5851 5855 5858 5861 5863 5865 5866 5867 5868 5869 5869 5870 5869 5869 5869 5869 5868 5868 5867 5867 5866 5865 5865 5864 5863 5862 5861 5860 5859 5857 5856 5854 5852 5850 5848 5845
5817 5822 5826 5831 5836 5840 5844 5848 5852 5855 5858 5860 5862 5864 5865 5866 5867 5868 5868 5869 5869 5868 5868 5868 5867 5867 5866 5866 5865 5864 5863 5862 5861 5860 5860 5859 5857 5856 5854 5853 5851 5849 5846 5844
5817 5822 5826 5831 5836 5840 5844 5848 5851 5855 5858 5860 5862 5863 5864 5866 5867 5867 5868 5868 5868 5867 5867 5867 5866 5866 5865 5865 5864 5863 5862 5861 5860 5859 5858 5857 5856 5855 5853 5851 5850 5848 5845 5843
5818 5823 5827 5832 5836 5840 5844 5847 5851 5855 5858 5860 5862 5863 5864 5865 5866 5867 5867 5867 5866 5866 5866 5865 5865 5865 5864 5864 5863 5862 5861 5860 5859 5858 5857 5856 5855 5853 5851 5850 5848 5846 5844 5842
5820 5824 5828 5832 5836 5841 5845 5848 5852 5855 5858 5860 5862 5863 5864 5864 5865 5866 5866 5865 5865 5865 5864 5864 5864 5864 5863 5862 5862 5861 5860 5859 5858 5857 5856 5855 5853 5852 5850 5848 5847 5845 5843 5841
5822 5826 5829 5833 5837 5842 5845 5849 5853 5855 5857 5859 5861 5863 5863 5863 5864 5865 5865 5865 5864 5864 5864 5863 5863 5862 5862 5861 5861 5860 5859 5858 5857 5856 5855 5853 5852 5850 5849 5847 5845 5844 5842 5840
5825 5828 5831 5834 5838 5842 5845 5849 5853 5855 5857 5859 5860 5861 5863 5863 5863 5864 5864 5864 5863 5863 5863 5862 5862 5861 5861 5860 5860 5859 5858 5857 5856 5854 5853 5852 5850 5849 5847 5846 5844 5842 5840 5838
5827 5830 5833 5836 5838 5841 5844 5847 5850 5854 5856 5858 5859 5860 5862 5862 5862 5863 5863 5863 5863 5862 5862 5861 5861 5860 5860 5860 5859 5858 5857 5856 5855 5853 5852 5850 5849 5847 5845 5844 5842 5840 5838 5836
5828 5831 5834 5837 5839 5842 5844 5847 5850 5852 5854 5857 5858 5859 5860 5861 5861 5862 5862 5862 5861 5861 5861 5860 5860 5860 5859 5858 5858 5857 5856 5855 5854 5852 5850 5849 5847 5845 5843 5842 5840 5838 5836 5834
5829 5832 5836 5838 5840 5842 5846 5848 5849 5851 5854 5856 5857 5859 5859 5860 5860 5860 5860 5860 5860 5860 5859 5859 5859 5858 5858 5857 5856 5856 5855 5853 5852 5851 5849 5847 5845 5843 5841 5840 5838 5836 5834 5831
5829 5833 5835 5838 5840 5842 5844 5847 5849 5852 5853 5855 5856 5859 5857 5858 5858 5859 5859 5859 5858 5858 5858 5858 5858 5857 5856 5856 5855 5854 5853 5852 5850 5849 5847 5845 5843 5841 5839 5837 5835 5833 5831 5829
5830 5833 5836 5838 5842 5843 5844 5846 5848 5849 5852 5853 5854 5857 5855 5856 5856 5857 5857 5857 5857 5857 5857 5856 5856 5855 5855 5854 5853 5852 5851 5849 5848 5846 5844 5842 5840 5838 5836 5834 5832 5830 5828 5826
5831 5833 5836 5838 5839 5840 5843 5845 5847 5849 5850 5852 5852 5852 5853 5854 5854 5855 5855 5855 5855 5855 5855 5854 5854 5853 5852 5852 5850 5849 5848 5847 5845 5843 5841 5839 5837 5835 5833 5830 5828 5826 5824 5822
5831 5832 5834 5835 5837 5839 5841 5843 5845 5847 5848 5849 5849 5849 5851 5852 5852 5853 5853 5853 5853 5853 5853 5852 5851 5850 5849 5848 5847 5846 5845 5843 5841 5840 5837 5835 5832 5830 5828 5826 5823 5821 5819 5817
5830 5832 5832 5834 5836 5838 5839 5841 5842 5844 5845 5846 5846 5848 5848 5849 5849 5850 5850 5850 5850 5850 5850 5849 5848 5847 5846 5845 5844 5842 5841 5839 5837 5835 5833 5830 5827 5825 5822 5820 5818 5815 5813 5811
5828 5830 5831 5833 5834 5836 5838 5839 5840 5841 5842 5844 5844 5846 5845 5846 5847 5847 5847 5847 5847 5847 5846 5845 5844 5843 5842 5841 5839 5838 5836 5834 5832 5830 5827 5825 5822 5819 5816 5814 5811 5809 5807 5804
5826 5827 5829 5831 5833 5834 5837 5836 5837 5839 5840 5841 5841 5842 5843 5843 5843 5844 5844 5844 5844 5843 5842 5841 5840 5839 5838 5836 5835 5833 5831 5829 5827 5824 5821 5818 5816 5813 5810 5807 5804 5802 5799 5797
5823 5825 5826 5828 5829 5831 5833 5833 5834 5835 5837 5837 5838 5838 5839 5839 5839 5840 5840 5839 5839 5838 5838 5837 5835 5834 5832 5831 5829 5827 5825 5823 5820 5818 5815 5812 5809 5806 5803 5799 5796 5793 5790 5788
5819 5821 5823 5825 5825 5827 5830 5830 5830 5832 5833 5834 5834 5834 5834 5834 5835 5836 5835 5834 5834 5833 5832 5831 5830 5828 5827 5825 5823 5821 5818 5816 5813 5810 5807 5804 5800 5797 5794 5791 5787 5784 5780 5777
5815 5817 5819 5820 5821 5822 5825 5826 5826 5828 5830 5830 5829 5829 5829 5829 5830 5830 5829 5829 5828 5827 5826 5825 5823 5822 5820 5818 5816 5814 5811 5808 5805 5802 5798 5795 5791 5788 5784 5780 5776 5772 5769 5765
5811 5812 5814 5815 5816 5819 5820 5821 5821 5823 5823 5823 5823 5824 5824 5824 5823 5823 5823 5822 5822 5821 5820 5818 5816 5814 5812 5810 5808 5805 5803 5800 5796 5793 5789 5785 5781 5777 5773 5768 5764 5759 5755 5751
5805 5807 5808 5810 5812 5813 5814 5814 5815 5816 5817 5817 5817 5818 5817 5817 5817 5817 5816 5815 5814 5813 5812 5810 5808 5806 5804 5801 5799 5796 5793 5790 5786 5782 5778 5774 5770 5765 5760 5755 5750 5745 5740 5735
5798 5800 5801 5803 5804 5805 5807 5808 5809 5809 5809 5810 5810 5810 5810 5810 5810 5809 5809 5808 5806 5805 5803 5802 5800 5797 5795 5792 5789 5786 5783 5779 5775 5771 5766 5762 5757 5752 5747 5741 5735 5729 5723 5718
5791 5793 5794 5795 5797 5797 5799 5800 5801 5802 5802 5802 5803 5802 5802 5802 5801 5801 5800 5799 5797 5796 5794 5792 5790 5787 5784 5781 5778 5775 5771 5767 5763 5758 5754 5748 5743 5738 5732 5726 5719 5713 5707 5699
5783 5785 5785 5786 5788 5790 5791 5792 5793 5793 5794 5794 5794 5794 5793 5793 5792 5791 5790 5789 5787 5785 5783 5781 5779 5776 5773 5770 5766 5762 5758 5754 5750 5745 5739 5734 5728 5722 5716 5710 5704 5697 5690 5683